Location: Unspecified
(42.9300°N, 71.1866°W)
Time: 22:34:38
(UTC-04:00)

CZ-3 Stage 3 - Visible Passes

Search period start: 27 March 2017 00:00
Search period end: 06 April 2017 00:00
Orbit: 398 x 34802 km, 30.6° (Epoch: 25 March)

Date Brightness Start Highest point End Pass type
(mag) Time Alt. Az. Time Alt. Az. Time Alt. Az.
27 Mar 7.2 17:09:17 10° SE 23:52:41 37° E 02:06:22 10° ESE visible
28 Mar 9.5 04:50:39 10° WNW 05:55:40 14° WNW 07:32:52 10° WNW visible
29 Mar 8.3 00:11:54 10° W 02:18:00 56° WSW 09:00:50 10° WSW visible
29 Mar 7.6 20:27:38 10° SW 01:20:53 71° SSE 05:49:22 10° SSE visible
30 Mar 7.2 16:59:40 10° SE 23:43:09 37° E 01:56:57 10° ESE visible
31 Mar 9.5 04:40:32 10° WNW 05:45:14 14° WNW 07:22:07 10° WNW visible
01 Apr 8.3 00:02:49 10° W 02:07:40 56° WSW 08:49:13 10° WSW visible
01 Apr 7.7 20:18:34 10° SW 21:24:40 65° SE 05:39:59 10° SSE visible
02 Apr 7.1 16:50:05 10° SE 23:33:36 37° ESE 01:47:31 10° ESE visible
03 Apr 9.5 04:30:28 10° WNW 05:34:46 14° WNW 07:11:10 10° WNW visible
03 Apr 8.3 23:53:43 10° W 01:57:16 56° WSW 08:37:24 10° WSW visible
04 Apr 7.7 20:09:29 10° SW 21:09:54 66° SE 05:30:33 10° SSE visible
